When you browse on this site, cookies collect data to enhance your experience and personalize the content and advertising you see.
Visit our Privacy Policy to learn more. By continuing to use the site, you agree to this use of cookies and data.
  • Em Portugal
  • Lista de países
  • Para 7 dias
  • Temperatura da água
  • Mapa do tempo
  • Widgets de tempo
  • user-avatar
    Iniciar Sessão

    Previsão horária em Lampeter

    Hoje, 22 Setembro, Domingo

    Tempo Temperatura Precipitação Vento Pressão Humidade
    00:00 +12°C° 0 mm 1 m/s 750 mmHg 93%
    01:00 +12°C° 0 mm 1 m/s 749 mmHg 93%
    02:00 +12°C° 0 mm 1 m/s 749 mmHg 93%
    03:00 +12°C° 0 mm 1 m/s 748 mmHg 93%
    04:00 +12°C° 0 mm 1 m/s 748 mmHg 92%
    05:00 +12°C° 0 mm 1 m/s 748 mmHg 92%
    06:00 +13°C° 0 mm 2 m/s 747 mmHg 92%
    07:00 +14°C° 0 mm 2 m/s 747 mmHg 89%
    08:00 +15°C° 0 mm 2 m/s 747 mmHg 86%
    09:00 +16°C° 0 mm 2 m/s 747 mmHg 84%
    10:00 +16°C° 0.1 mm 2 m/s 747 mmHg 85%
    11:00 +17°C° 0.1 mm 2 m/s 746 mmHg 87%
    12:00 +17°C° 0.1 mm 2 m/s 746 mmHg 88%
    13:00 +17°C° 0.6 mm 3 m/s 746 mmHg 89%
    14:00 +17°C° 0.6 mm 3 m/s 746 mmHg 91%
    15:00 +17°C° 0.6 mm 3 m/s 745 mmHg 92%
    16:00 +17°C° 0.4 mm 2 m/s 745 mmHg 93%
    17:00 +17°C° 0.4 mm 2 m/s 746 mmHg 95%
    18:00 +16°C° 0.4 mm 2 m/s 746 mmHg 97%
    19:00 +16°C° 1.1 mm 1 m/s 746 mmHg 97%
    20:00 +16°C° 1.1 mm 1 m/s 746 mmHg 97%
    21:00 +15°C° 1.1 mm 1 m/s 746 mmHg 97%
    22:00 +15°C° 1.2 mm 1 m/s 746 mmHg 97%
    23:00 +15°C° 1.2 mm 1 m/s 746 mmHg 97%

    Amanhã, 23 Setembro, Segunda-feira

    Tempo Temperatura Precipitação Vento Pressão Humidade
    00:00 +15°C° 1.2 mm 1 m/s 746 mmHg 97%
    01:00 +15°C° 0.3 mm 1 m/s 746 mmHg 97%
    02:00 +14°C° 0.3 mm 2 m/s 746 mmHg 96%
    03:00 +14°C° 0.3 mm 2 m/s 746 mmHg 96%
    04:00 +14°C° 0 mm 2 m/s 747 mmHg 96%
    05:00 +14°C° 0 mm 2 m/s 747 mmHg 96%
    06:00 +13°C° 0 mm 2 m/s 747 mmHg 96%
    07:00 +14°C° 0 mm 2 m/s 747 mmHg 93%
    08:00 +15°C° 0 mm 2 m/s 748 mmHg 90%
    09:00 +16°C° 0 mm 2 m/s 748 mmHg 87%
    10:00 +17°C° 0.1 mm 2 m/s 748 mmHg 84%
    11:00 +18°C° 0.1 mm 2 m/s 748 mmHg 80%
    12:00 +18°C° 0.1 mm 3 m/s 748 mmHg 77%
    13:00 +18°C° 0.4 mm 3 m/s 748 mmHg 76%
    14:00 +18°C° 0.4 mm 4 m/s 748 mmHg 75%
    15:00 +18°C° 0.4 mm 4 m/s 748 mmHg 73%
    16:00 +16°C° 0 mm 3 m/s 748 mmHg 77%
    17:00 +14°C° 0 mm 3 m/s 747 mmHg 80%
    18:00 +14°C° 0 mm 2 m/s 747 mmHg 83%
    19:00 +14°C° 0 mm 2 m/s 747 mmHg 84%
    20:00 +13°C° 0 mm 3 m/s 747 mmHg 84%
    21:00 +12°C° 0 mm 3 m/s 747 mmHg 84%
    22:00 +13°C° 0.2 mm 3 m/s 746 mmHg 86%
    23:00 +13°C° 0.2 mm 3 m/s 746 mmHg 88%

    Depois de amanhã, 24 Setembro, Terça-feira

    Tempo Temperatura Precipitação Vento Pressão Humidade
    00:00 +13°C° 0.2 mm 3 m/s 746 mmHg 90%
    01:00 +13°C° 0.3 mm 3 m/s 745 mmHg 92%
    02:00 +13°C° 0.3 mm 3 m/s 745 mmHg 94%
    03:00 +13°C° 0.3 mm 3 m/s 744 mmHg 95%
    04:00 +14°C° 0.4 mm 2 m/s 744 mmHg 96%
    05:00 +14°C° 0.4 mm 2 m/s 743 mmHg 96%
    06:00 +14°C° 0.4 mm 2 m/s 743 mmHg 97%
    07:00 +15°C° 0.1 mm 2 m/s 743 mmHg 95%
    08:00 +15°C° 0.1 mm 1 m/s 743 mmHg 93%
    09:00 +16°C° 0.1 mm 1 m/s 742 mmHg 91%
    10:00 +17°C° 0 mm 2 m/s 742 mmHg 88%
    11:00 +17°C° 0 mm 3 m/s 742 mmHg 86%
    12:00 +18°C° 0 mm 3 m/s 742 mmHg 84%
    13:00 +18°C° 0.2 mm 3 m/s 741 mmHg 85%
    14:00 +18°C° 0.2 mm 4 m/s 741 mmHg 87%
    15:00 +18°C° 0.2 mm 4 m/s 741 mmHg 88%
    16:00 +17°C° 0.8 mm 4 m/s 741 mmHg 91%
    17:00 +15°C° 0.8 mm 4 m/s 740 mmHg 94%
    18:00 +15°C° 0.8 mm 4 m/s 740 mmHg 96%
    19:00 +14°C° 0.3 mm 3 m/s 740 mmHg 97%
    20:00 +14°C° 0.3 mm 3 m/s 741 mmHg 97%
    21:00 +14°C° 0.3 mm 3 m/s 741 mmHg 98%
    22:00 +14°C° 0.1 mm 3 m/s 740 mmHg 98%
    23:00 +14°C° 0.1 mm 3 m/s 740 mmHg 98%

    25 Setembro, Quarta-feira

    Tempo Temperatura Precipitação Vento Pressão Humidade
    00:00 +14°C° 0.1 mm 3 m/s 740 mmHg 98%
    01:00 +14°C° 0.2 mm 3 m/s 740 mmHg 98%
    02:00 +15°C° 0.2 mm 2 m/s 740 mmHg 97%
    03:00 +14°C° 0.2 mm 2 m/s 740 mmHg 97%
    04:00 +14°C° 0.1 mm 2 m/s 740 mmHg 97%
    05:00 +14°C° 0.1 mm 1 m/s 740 mmHg 97%
    06:00 +14°C° 0.1 mm 1 m/s 740 mmHg 96%
    07:00 +15°C° 0.1 mm 1 m/s 741 mmHg 94%
    08:00 +15°C° 0.1 mm 1 m/s 741 mmHg 92%
    09:00 +15°C° 0.1 mm 2 m/s 741 mmHg 90%
    10:00 +16°C° 0.1 mm 2 m/s 742 mmHg 89%
    11:00 +16°C° 0.1 mm 2 m/s 742 mmHg 87%
    12:00 +17°C° 0.1 mm 3 m/s 742 mmHg 85%
    13:00 +17°C° 0.3 mm 3 m/s 742 mmHg 85%
    14:00 +17°C° 0.3 mm 3 m/s 742 mmHg 86%
    15:00 +17°C° 0.3 mm 3 m/s 742 mmHg 86%
    16:00 +16°C° 0.1 mm 3 m/s 742 mmHg 88%
    17:00 +14°C° 0.1 mm 3 m/s 742 mmHg 89%
    18:00 +15°C° 0.1 mm 2 m/s 742 mmHg 91%
    19:00 +13°C° 0 mm 3 m/s 741 mmHg 92%
    20:00 +13°C° 0 mm 3 m/s 741 mmHg 93%
    21:00 +12°C° 0 mm 3 m/s 741 mmHg 93%
    22:00 +13°C° 0.2 mm 4 m/s 740 mmHg 92%
    23:00 +13°C° 0.2 mm 4 m/s 739 mmHg 92%

    26 Setembro, Quinta-feira

    Tempo Temperatura Precipitação Vento Pressão Humidade
    00:00 +14°C° 0.2 mm 5 m/s 739 mmHg 91%
    01:00 +13°C° 2.1 mm 5 m/s 738 mmHg 91%
    02:00 +13°C° 2.1 mm 4 m/s 738 mmHg 92%
    03:00 +13°C° 2.1 mm 3 m/s 738 mmHg 93%
    04:00 +13°C° 0 mm 3 m/s 738 mmHg 93%
    05:00 +13°C° 0 mm 2 m/s 738 mmHg 93%
    06:00 +13°C° 0 mm 2 m/s 738 mmHg 93%
    07:00 +12°C° 0 mm 3 m/s 738 mmHg 89%
    08:00 +13°C° 0 mm 4 m/s 739 mmHg 85%
    09:00 +13°C° 0 mm 4 m/s 739 mmHg 82%
    10:00 +14°C° 0 mm 5 m/s 740 mmHg 80%
    11:00 +15°C° 0 mm 5 m/s 740 mmHg 78%
    12:00 +15°C° 0 mm 5 m/s 740 mmHg 75%
    13:00 +15°C° 0.1 mm 5 m/s 740 mmHg 76%
    14:00 +15°C° 0.1 mm 5 m/s 740 mmHg 77%
    15:00 +15°C° 0.1 mm 4 m/s 740 mmHg 77%
    16:00 +14°C° 0.2 mm 4 m/s 740 mmHg 80%
    17:00 +13°C° 0.2 mm 3 m/s 740 mmHg 83%
    18:00 +14°C° 0.2 mm 2 m/s 740 mmHg 86%
    19:00 +13°C° 0 mm 2 m/s 740 mmHg 87%
    20:00 +12°C° 0 mm 2 m/s 740 mmHg 89%
    21:00 +12°C° 0 mm 2 m/s 741 mmHg 90%
    22:00 +12°C° 0 mm 2 m/s 741 mmHg 90%
    23:00 +12°C° 0 mm 2 m/s 741 mmHg 91%

    27 Setembro, Sexta-feira

    Tempo Temperatura Precipitação Vento Pressão Humidade
    00:00 +12°C° 0 mm 1 m/s 741 mmHg 91%
    01:00 +10°C° 0 mm 2 m/s 741 mmHg 91%
    02:00 +10°C° 0 mm 2 m/s 740 mmHg 92%
    03:00 +10°C° 0 mm 2 m/s 740 mmHg 93%
    04:00 +10°C° 0 mm 2 m/s 740 mmHg 93%
    05:00 +10°C° 0 mm 2 m/s 740 mmHg 92%
    06:00 +10°C° 0 mm 2 m/s 740 mmHg 92%
    07:00 +12°C° 0 mm 2 m/s 741 mmHg 89%
    08:00 +12°C° 0 mm 3 m/s 741 mmHg 86%
    09:00 +13°C° 0 mm 3 m/s 741 mmHg 83%
    10:00 +13°C° 0.1 mm 3 m/s 741 mmHg 83%
    11:00 +13°C° 0.1 mm 4 m/s 741 mmHg 82%
    12:00 +13°C° 0.1 mm 4 m/s 741 mmHg 82%
    13:00 +13°C° 0.1 mm 4 m/s 740 mmHg 82%
    14:00 +14°C° 0.1 mm 4 m/s 740 mmHg 82%
    15:00 +14°C° 0.1 mm 4 m/s 740 mmHg 81%
    16:00 +13°C° 0.1 mm 4 m/s 740 mmHg 83%
    17:00 +13°C° 0.1 mm 4 m/s 739 mmHg 86%
    18:00 +12°C° 0.1 mm 4 m/s 739 mmHg 88%
    19:00 +12°C° 0.9 mm 4 m/s 739 mmHg 90%
    20:00 +12°C° 0.9 mm 5 m/s 739 mmHg 91%
    21:00 +12°C° 0.9 mm 5 m/s 738 mmHg 93%
    22:00 +12°C° 0.6 mm 5 m/s 738 mmHg 92%
    23:00 +11°C° 0.6 mm 4 m/s 738 mmHg 92%
    Mostrar mais